ELECTRON KICK STAGE R/B, 63306

Orbit data source: Space-Track

ELECTRON KICK STAGE R/B, 63306 is space debris in SSO originally from a launch on Tue, 18 Mar 2025 UTC launched from the Rocket Lab Launch Complex (RLLC). Debris objects in space refer to the collection of defunct objects orbiting the Earth. Examples of debris include non-operational satellites, rocket bodies, and fragments generated from explosions, collisions, or faulty payload assembly.

Loading next visibility...
Identifier
63306, 2025-056G
Orbit
SSO
Country
Flag of USUS
Related business
Manufacturer
Rocket Lab
Mission
Spacecraft
Bus & Motor
KICK STAGE, CURIE
Mass
~50 kg wet, ~50 kg dry
Launch date (UTC)
2025-03-18 (7 months ago)
Launch vehicle
Unknown
Launch site
Rocket Lab Launch Complex (RLLC)
Object type
Payload
Rocket body
Debris
Shape & HBR
Trunc Cone, 0.9 m
Radar Cross Section
0.760 m², Large (>1 m²)

Expand to show TLE details & history
Last TLE update: 11 hours ago

TLE from 11 hours ago
0 ELECTRON KICK STAGE R/B
1 63306U 25056G   25287.31297864  .00004923  00000-0  54793-3 0  9999
2 63306  97.9959  55.3017 0044638  70.7542 289.8495 14.86859259 31218
Epoch: 2025-10-14T07:30Z
TLE epoch observation values (Epoch: 2025-10-14T07:30:41.354Z)
Latitude
-0.00001°
Longitude
-80.47381°
Altitude
600.317 km
Speed
7.565 km/s
True Right ascension
03h 41m 12s
True Declination
0° 00' 00"
Sunlit
Object was in full shadow at epoch
Visualization orbit readout
Latitude
Unknown
Longitude
Unknown
Altitude
Unknown
Speed
Unknown
Apparent Right ascension
Unknown
Apparent Declination
Unknown
Sunlit
N/A
Visualization observer readout
Local Sidereal Time
13:10:47
Azimuth
Unknown
Elevation
Unknown
Doppler factor
Unknown
Orbital elements
Apogee altitude
635.962 km
Perigee altitude
573.622 km
Semi-major axis
6,982.929 km
Eccentricity
0.00446
Inclination
97.9959°
RAAN
55.3017°
Arg. of periapsis
70.7542°
True anomaly
289.36747°
Mean anomaly
289.8495°
Eccentric anomaly
289.60858°
Mean motion
3.71952 °/min
Orbital period
96.79 mins
BSTAR
0.00054793
Loading maneuver chart data...
Computing Atmospheric mass density...
Loading historical data...
Loading historical data...
Loading historical data...
Loading historical data...
Loading historical data...
Loading historical data...
Loading historical data...

Documentation

Showing up to 5 results
|